Location: Melbourne
(37.8170°S, 144.9670°E)
Time: 12:02:23
(UTC+11:00)

ERBS - Visible Passes

Search period start: 22 February 2018 00:00
Search period end: 04 March 2018 00:00
Orbit: 425 x 436 km, 57.0° (Epoch: 20 February)

Date Brightness Start Highest point End Pass type
(mag) Time Alt. Az. Time Alt. Az. Time Alt. Az.
22 Feb 4.9 20:44:21 10° SSE 20:45:17 11° SSE 20:46:12 10° SE visible
22 Feb 3.5 22:18:53 10° SW 22:21:19 41° SSW 22:21:19 41° SSW visible
23 Feb 2.9 21:35:28 10° SSW 21:38:50 42° SE 21:39:21 39° ESE visible
24 Feb 3.8 20:52:10 10° SSW 20:55:11 26° SE 20:57:27 14° E visible
24 Feb 4.6 22:28:44 10° WSW 22:30:40 22° W 22:30:40 22° W visible
25 Feb 3.0 21:44:51 10° SW 21:48:14 47° NW 21:48:51 41° NNW visible
26 Feb 2.3 21:01:13 10° SW 21:04:43 89° NW 21:07:08 19° NE visible
27 Feb 5.1 21:55:48 10° W 21:57:19 12° WNW 21:58:45 10° NW visible
28 Feb 4.6 21:11:10 10° WSW 21:13:55 22° WNW 21:16:39 10° N visible
01 Mar 3.7 20:27:10 10° WSW 20:30:28 39° NW 20:33:43 10° NNE visible
03 Mar 5.6 20:38:43 10° WNW 20:39:28 11° WNW 20:40:12 10° NW visible
